Year,Month,Day,Hour,Minute,Value (Times are PST for windspeed in km/hr)
2010,06,02,00,00,15.40
2010,06,02,00,01,10.00
2010,06,02,00,02,13.60
2010,06,02,00,03,12.00
2010,06,02,00,04,10.30
2010,06,02,00,05,12.50
2010,06,02,00,06,11.40
2010,06,02,00,07,14.10
2010,06,02,00,08,8.10
2010,06,02,00,09,13.20
2010,06,02,00,10,16.90
2010,06,02,00,11,11.30
2010,06,02,00,12,4.80
2010,06,02,00,13,11.40
2010,06,02,00,14,10.40
2010,06,02,00,15,11.40
2010,06,02,00,16,9.00
2010,06,02,00,17,10.90
2010,06,02,00,18,13.30
2010,06,02,00,19,17.50
2010,06,02,00,20,6.80
2010,06,02,00,21,7.90
2010,06,02,00,22,11.20
2010,06,02,00,23,12.90
2010,06,02,00,24,13.90
2010,06,02,00,25,15.30
2010,06,02,00,26,13.50
2010,06,02,00,27,12.90
2010,06,02,00,28,18.40
2010,06,02,00,29,10.20
2010,06,02,00,30,10.00
2010,06,02,00,31,10.00
2010,06,02,00,32,11.20
2010,06,02,00,33,11.40
2010,06,02,00,34,11.40
2010,06,02,00,35,12.50
2010,06,02,00,36,9.20
2010,06,02,00,37,9.90
2010,06,02,00,38,8.10
2010,06,02,00,39,12.60
2010,06,02,00,40,13.60
2010,06,02,00,41,11.00
2010,06,02,00,42,9.00
2010,06,02,00,43,5.20
2010,06,02,00,44,7.40
2010,06,02,00,45,11.60
2010,06,02,00,46,7.80
2010,06,02,00,47,9.20
2010,06,02,00,48,8.70
2010,06,02,00,49,8.60
2010,06,02,00,50,8.30
2010,06,02,00,51,11.00
2010,06,02,00,52,8.20
2010,06,02,00,53,4.20
2010,06,02,00,54,9.90
2010,06,02,00,55,8.60
2010,06,02,00,56,10.90
2010,06,02,00,57,7.10
2010,06,02,00,58,9.60
2010,06,02,00,59,9.10
2010,06,02,01,00,11.30
2010,06,02,01,01,11.40
2010,06,02,01,02,10.10
2010,06,02,01,03,8.70
2010,06,02,01,04,7.60
2010,06,02,01,05,14.10
2010,06,02,01,06,9.50
2010,06,02,01,07,7.90
2010,06,02,01,08,7.70
2010,06,02,01,09,9.00
2010,06,02,01,10,11.60
2010,06,02,01,11,10.80
2010,06,02,01,12,8.90
2010,06,02,01,13,6.50
2010,06,02,01,14,13.90
2010,06,02,01,15,12.00
2010,06,02,01,16,5.30
2010,06,02,01,17,10.10
2010,06,02,01,18,12.70
2010,06,02,01,19,9.70
2010,06,02,01,20,9.70
2010,06,02,01,21,7.20
2010,06,02,01,22,2.40
2010,06,02,01,23,9.50
2010,06,02,01,24,9.50
2010,06,02,01,25,8.20
2010,06,02,01,26,6.20
2010,06,02,01,27,5.60
2010,06,02,01,28,10.90
2010,06,02,01,29,5.80
2010,06,02,01,30,9.60
2010,06,02,01,31,12.20
2010,06,02,01,32,5.40
2010,06,02,01,33,4.80
2010,06,02,01,34,13.70
2010,06,02,01,35,9.60
2010,06,02,01,36,6.00
2010,06,02,01,37,8.80
2010,06,02,01,38,8.60
2010,06,02,01,39,9.20
2010,06,02,01,40,7.50
2010,06,02,01,41,9.70
2010,06,02,01,42,6.40
2010,06,02,01,43,7.70
2010,06,02,01,44,8.40
2010,06,02,01,45,7.70
2010,06,02,01,46,7.10
2010,06,02,01,47,7.60
2010,06,02,01,48,8.50
2010,06,02,01,49,8.80
2010,06,02,01,50,8.10
2010,06,02,01,51,4.90
2010,06,02,01,52,6.40
2010,06,02,01,53,8.10
2010,06,02,01,54,9.70
2010,06,02,01,55,9.00
2010,06,02,01,56,9.20
2010,06,02,01,57,11.20
2010,06,02,01,58,10.50
2010,06,02,01,59,10.60
2010,06,02,02,00,7.80
2010,06,02,02,01,7.00
2010,06,02,02,02,6.40
2010,06,02,02,03,7.00
2010,06,02,02,04,9.80
2010,06,02,02,05,8.10
2010,06,02,02,06,7.90
2010,06,02,02,07,10.20
2010,06,02,02,08,6.80
2010,06,02,02,09,9.50
2010,06,02,02,10,10.30
2010,06,02,02,11,12.80
2010,06,02,02,12,7.80
2010,06,02,02,13,10.10
2010,06,02,02,14,4.50
2010,06,02,02,15,6.90
2010,06,02,02,16,7.50
2010,06,02,02,17,16.30
2010,06,02,02,18,8.10
2010,06,02,02,19,9.00
2010,06,02,02,20,7.60
2010,06,02,02,21,7.10
2010,06,02,02,22,9.70
2010,06,02,02,23,7.00
2010,06,02,02,24,15.80
2010,06,02,02,25,14.60
2010,06,02,02,26,13.10
2010,06,02,02,27,8.20
2010,06,02,02,28,9.40
2010,06,02,02,29,5.90
2010,06,02,02,30,10.20
2010,06,02,02,31,8.00
2010,06,02,02,32,5.80
2010,06,02,02,33,8.30
2010,06,02,02,34,8.20
2010,06,02,02,35,6.80
2010,06,02,02,36,4.20
2010,06,02,02,37,4.00
2010,06,02,02,38,2.70
2010,06,02,02,39,8.30
2010,06,02,02,40,6.70
2010,06,02,02,41,6.10
2010,06,02,02,42,3.90
2010,06,02,02,43,1.50
2010,06,02,02,44,8.00
2010,06,02,02,45,6.30
2010,06,02,02,46,3.60
2010,06,02,02,47,4.00
2010,06,02,02,48,3.60
2010,06,02,02,49,2.20
2010,06,02,02,50,1.40
2010,06,02,02,51,0.80
2010,06,02,02,52,4.40
2010,06,02,02,53,2.00
2010,06,02,02,54,4.00
2010,06,02,02,55,5.50
2010,06,02,02,56,1.40
2010,06,02,02,57,0.10
2010,06,02,02,58,0.20
2010,06,02,02,59,1.00
2010,06,02,03,00,0.00
2010,06,02,03,01,0.90
2010,06,02,03,02,0.50
2010,06,02,03,03,4.60
2010,06,02,03,04,0.20
2010,06,02,03,05,0.00
2010,06,02,03,06,0.10
2010,06,02,03,07,0.00
2010,06,02,03,08,0.10
2010,06,02,03,09,0.10
2010,06,02,03,10,0.80
2010,06,02,03,11,0.00
2010,06,02,03,12,0.00
2010,06,02,03,13,1.70
2010,06,02,03,14,1.60
2010,06,02,03,15,4.10
2010,06,02,03,16,1.20
2010,06,02,03,17,2.20
2010,06,02,03,18,0.30
2010,06,02,03,19,0.40
2010,06,02,03,20,0.00
2010,06,02,03,21,0.20
2010,06,02,03,22,0.00
2010,06,02,03,23,0.10
2010,06,02,03,24,0.00
2010,06,02,03,25,0.00
2010,06,02,03,26,0.60
2010,06,02,03,27,0.20
2010,06,02,03,28,1.90
2010,06,02,03,29,1.00
2010,06,02,03,30,3.30
2010,06,02,03,31,1.20
2010,06,02,03,32,1.50
2010,06,02,03,33,1.40
2010,06,02,03,34,0.00
2010,06,02,03,35,0.00
2010,06,02,03,36,1.20
2010,06,02,03,37,1.90
2010,06,02,03,38,2.50
2010,06,02,03,39,2.50
2010,06,02,03,40,0.40
2010,06,02,03,41,0.00
2010,06,02,03,42,2.30
2010,06,02,03,43,3.10
2010,06,02,03,44,0.30
2010,06,02,03,45,4.00
2010,06,02,03,46,3.90
2010,06,02,03,47,0.70
2010,06,02,03,48,0.30
2010,06,02,03,49,0.00
2010,06,02,03,50,0.20
2010,06,02,03,51,0.30
2010,06,02,03,52,0.10
2010,06,02,03,53,0.00
2010,06,02,03,54,0.10
2010,06,02,03,55,0.00
2010,06,02,03,56,0.30
2010,06,02,03,57,0.90
2010,06,02,03,58,3.00
2010,06,02,03,59,1.90
2010,06,02,04,00,1.80
2010,06,02,04,01,5.90
2010,06,02,04,02,2.30
2010,06,02,04,03,4.00
2010,06,02,04,04,8.20
2010,06,02,04,05,11.70
2010,06,02,04,06,7.50
2010,06,02,04,07,6.10
2010,06,02,04,08,5.00
2010,06,02,04,09,4.70
2010,06,02,04,10,7.00
2010,06,02,04,11,8.90
2010,06,02,04,12,6.00
2010,06,02,04,13,8.40
2010,06,02,04,14,6.10
2010,06,02,04,15,6.70
2010,06,02,04,16,6.80
2010,06,02,04,17,5.50
2010,06,02,04,18,8.80
2010,06,02,04,19,6.90
2010,06,02,04,20,6.10
2010,06,02,04,21,2.30
2010,06,02,04,22,5.00
2010,06,02,04,23,9.50
2010,06,02,04,24,7.30
2010,06,02,04,25,7.00
2010,06,02,04,26,8.10
2010,06,02,04,27,8.70
2010,06,02,04,28,9.50
2010,06,02,04,29,8.20
2010,06,02,04,30,7.10
2010,06,02,04,31,4.90
2010,06,02,04,32,4.20
2010,06,02,04,33,8.70
2010,06,02,04,34,5.50
2010,06,02,04,35,4.20
2010,06,02,04,36,6.70
2010,06,02,04,37,3.50
2010,06,02,04,38,2.90
2010,06,02,04,39,0.60
2010,06,02,04,40,2.70
2010,06,02,04,41,1.70
2010,06,02,04,42,5.70
2010,06,02,04,43,7.70
2010,06,02,04,44,3.20
2010,06,02,04,45,3.00
2010,06,02,04,46,6.80
2010,06,02,04,47,3.00
2010,06,02,04,48,2.60
2010,06,02,04,49,9.40
2010,06,02,04,50,7.20
2010,06,02,04,51,3.80
2010,06,02,04,52,1.20
2010,06,02,04,53,0.80
2010,06,02,04,54,4.70
2010,06,02,04,55,5.10
2010,06,02,04,56,7.30
2010,06,02,04,57,4.10
2010,06,02,04,58,4.10
2010,06,02,04,59,3.00
2010,06,02,05,00,1.90
2010,06,02,05,01,3.10
2010,06,02,05,02,4.40
2010,06,02,05,03,4.90
2010,06,02,05,04,0.80
2010,06,02,05,05,0.80
2010,06,02,05,06,4.50
2010,06,02,05,07,4.60
2010,06,02,05,08,7.10
2010,06,02,05,09,5.90
2010,06,02,05,10,3.90
2010,06,02,05,11,4.80
2010,06,02,05,12,7.80
2010,06,02,05,13,6.00
2010,06,02,05,14,6.90
2010,06,02,05,15,4.60
2010,06,02,05,16,10.50
2010,06,02,05,17,8.00
2010,06,02,05,18,10.40
2010,06,02,05,19,8.10
2010,06,02,05,20,11.50
2010,06,02,05,21,7.70
2010,06,02,05,22,5.60
2010,06,02,05,23,5.00
2010,06,02,05,24,5.00
2010,06,02,05,25,5.40
2010,06,02,05,26,4.70
2010,06,02,05,27,8.50
2010,06,02,05,28,11.70
2010,06,02,05,29,8.90
2010,06,02,05,30,7.10
2010,06,02,05,31,9.40
2010,06,02,05,32,9.70
2010,06,02,05,33,9.50
2010,06,02,05,34,7.50
2010,06,02,05,35,11.90
2010,06,02,05,36,5.90
2010,06,02,05,37,5.70
2010,06,02,05,38,11.80
2010,06,02,05,39,5.40
2010,06,02,05,40,7.80
2010,06,02,05,41,7.90
2010,06,02,05,42,5.30
2010,06,02,05,43,9.00
2010,06,02,05,44,8.00
2010,06,02,05,45,5.10
2010,06,02,05,46,11.60
2010,06,02,05,47,6.00
2010,06,02,05,48,9.40
2010,06,02,05,49,2.60
2010,06,02,05,50,5.20
2010,06,02,05,51,3.10
2010,06,02,05,52,4.50
2010,06,02,05,53,7.00
2010,06,02,05,54,9.60
2010,06,02,05,55,8.80
2010,06,02,05,56,7.90
2010,06,02,05,57,7.60
2010,06,02,05,58,7.80
2010,06,02,05,59,8.00
2010,06,02,06,00,9.90
2010,06,02,06,01,8.10
2010,06,02,06,02,4.80
2010,06,02,06,03,4.30
2010,06,02,06,04,14.20
2010,06,02,06,05,14.20
2010,06,02,06,06,15.60
2010,06,02,06,07,10.80
2010,06,02,06,08,10.50
2010,06,02,06,09,12.60
2010,06,02,06,10,9.80
2010,06,02,06,11,10.70
2010,06,02,06,12,6.60
2010,06,02,06,13,9.80
2010,06,02,06,14,11.30
2010,06,02,06,15,9.60
2010,06,02,06,16,12.90
2010,06,02,06,17,7.40
2010,06,02,06,18,7.10
2010,06,02,06,19,9.50
2010,06,02,06,20,9.90
2010,06,02,06,21,13.40
2010,06,02,06,22,9.70
2010,06,02,06,23,7.80
2010,06,02,06,24,6.10
2010,06,02,06,25,10.50
2010,06,02,06,26,10.60
2010,06,02,06,27,7.10
2010,06,02,06,28,11.30
2010,06,02,06,29,10.90
2010,06,02,06,30,14.70
2010,06,02,06,31,9.10
2010,06,02,06,32,10.10
2010,06,02,06,33,12.20
2010,06,02,06,34,10.90
2010,06,02,06,35,7.30
2010,06,02,06,36,9.00
2010,06,02,06,37,5.30
2010,06,02,06,38,11.80
2010,06,02,06,39,8.00
2010,06,02,06,40,5.00
2010,06,02,06,41,7.30
2010,06,02,06,42,7.10
2010,06,02,06,43,7.40
2010,06,02,06,44,3.70
2010,06,02,06,45,9.70
2010,06,02,06,46,9.60
2010,06,02,06,47,8.70
2010,06,02,06,48,10.10
2010,06,02,06,49,7.60
2010,06,02,06,50,4.40
2010,06,02,06,51,8.90
2010,06,02,06,52,12.40
2010,06,02,06,53,10.60
2010,06,02,06,54,6.60
2010,06,02,06,55,9.30
2010,06,02,06,56,9.20
2010,06,02,06,57,11.00
2010,06,02,06,58,4.60
2010,06,02,06,59,2.40
2010,06,02,07,00,12.00
2010,06,02,07,01,10.20
2010,06,02,07,02,6.90
2010,06,02,07,03,5.50
2010,06,02,07,04,4.90
2010,06,02,07,05,7.20
2010,06,02,07,06,9.90
2010,06,02,07,07,8.40
2010,06,02,07,08,8.10
2010,06,02,07,09,7.60
2010,06,02,07,10,8.20
2010,06,02,07,11,5.60
2010,06,02,07,12,5.90
2010,06,02,07,13,5.60
2010,06,02,07,14,5.00
2010,06,02,07,15,1.40
2010,06,02,07,16,3.60
2010,06,02,07,17,1.70
2010,06,02,07,18,7.90
2010,06,02,07,19,6.30
2010,06,02,07,20,5.90
2010,06,02,07,21,3.50
2010,06,02,07,22,7.90
2010,06,02,07,23,0.50
2010,06,02,07,24,2.50
2010,06,02,07,25,3.80
2010,06,02,07,26,2.60
2010,06,02,07,27,2.70
2010,06,02,07,28,5.00
2010,06,02,07,29,1.90
2010,06,02,07,30,4.20
2010,06,02,07,31,6.30
2010,06,02,07,32,8.70
2010,06,02,07,33,6.40
2010,06,02,07,34,7.90
2010,06,02,07,35,8.20
2010,06,02,07,36,4.20
2010,06,02,07,37,5.30
2010,06,02,07,38,6.20
2010,06,02,07,39,4.70
2010,06,02,07,40,6.80
2010,06,02,07,41,4.80
2010,06,02,07,42,7.20
2010,06,02,07,43,7.90
2010,06,02,07,44,9.20
2010,06,02,07,45,6.10
2010,06,02,07,46,7.00
2010,06,02,07,47,7.00
2010,06,02,07,48,10.20
2010,06,02,07,49,10.90
2010,06,02,07,50,7.90
2010,06,02,07,51,9.50
2010,06,02,07,52,9.50
2010,06,02,07,53,9.50
2010,06,02,07,54,7.70
2010,06,02,07,55,9.40
2010,06,02,07,56,11.30
2010,06,02,07,57,10.30
2010,06,02,07,58,10.50
2010,06,02,07,59,12.50
2010,06,02,08,00,7.80
2010,06,02,08,01,6.10
2010,06,02,08,02,10.10
2010,06,02,08,03,12.80
2010,06,02,08,04,13.60
2010,06,02,08,05,9.90
2010,06,02,08,06,4.70
2010,06,02,08,07,8.10
2010,06,02,08,08,10.70
2010,06,02,08,09,7.80
2010,06,02,08,10,9.70
2010,06,02,08,11,8.60
2010,06,02,08,12,8.30
2010,06,02,08,13,9.30
2010,06,02,08,14,8.20
2010,06,02,08,15,10.10
2010,06,02,08,16,3.50
2010,06,02,08,17,10.80
2010,06,02,08,18,6.90
2010,06,02,08,19,14.20
2010,06,02,08,20,14.60
2010,06,02,08,21,9.30
2010,06,02,08,22,9.60
2010,06,02,08,23,5.30
2010,06,02,08,24,10.50
2010,06,02,08,25,9.30
2010,06,02,08,26,6.20
2010,06,02,08,27,9.30
2010,06,02,08,28,10.30
2010,06,02,08,29,9.80
2010,06,02,08,30,12.10
2010,06,02,08,31,9.90
2010,06,02,08,32,5.80
2010,06,02,08,33,6.40
2010,06,02,08,34,7.50
2010,06,02,08,35,8.60
2010,06,02,08,36,10.30
2010,06,02,08,37,8.60
2010,06,02,08,38,7.60
2010,06,02,08,39,6.00
2010,06,02,08,40,7.00
2010,06,02,08,41,6.90
2010,06,02,08,42,9.30
2010,06,02,08,43,9.10
2010,06,02,08,44,4.70
2010,06,02,08,45,2.00
2010,06,02,08,46,2.90
2010,06,02,08,47,4.20
2010,06,02,08,48,10.30
2010,06,02,08,49,7.20
2010,06,02,08,50,10.50
2010,06,02,08,51,8.30
2010,06,02,08,52,7.00
2010,06,02,08,53,6.30
2010,06,02,08,54,10.00
2010,06,02,08,55,9.30
2010,06,02,08,56,11.40
2010,06,02,08,57,8.30
2010,06,02,08,58,4.90
2010,06,02,08,59,7.90
2010,06,02,09,00,5.40
2010,06,02,09,01,3.50
2010,06,02,09,02,8.30
2010,06,02,09,03,6.70
2010,06,02,09,04,1.90
2010,06,02,09,05,5.10
2010,06,02,09,06,5.80
2010,06,02,09,07,3.80
2010,06,02,09,08,7.10
2010,06,02,09,09,7.60
2010,06,02,09,10,7.90
2010,06,02,09,11,9.00
2010,06,02,09,12,10.60
2010,06,02,09,13,8.90
2010,06,02,09,14,3.50
2010,06,02,09,15,4.30
2010,06,02,09,16,9.00
2010,06,02,09,17,5.90
2010,06,02,09,18,7.50
2010,06,02,09,19,5.90
2010,06,02,09,20,2.90
2010,06,02,09,21,1.60
2010,06,02,09,22,7.00
2010,06,02,09,23,4.40
2010,06,02,09,24,6.90
2010,06,02,09,25,8.30
2010,06,02,09,26,2.00
2010,06,02,09,27,5.00
2010,06,02,09,28,5.70
2010,06,02,09,29,6.40
2010,06,02,09,30,7.00
2010,06,02,09,31,8.20
2010,06,02,09,32,10.30
2010,06,02,09,33,5.60
2010,06,02,09,34,6.00
2010,06,02,09,35,5.40
2010,06,02,09,36,2.10
2010,06,02,09,37,1.40
2010,06,02,09,38,4.00
2010,06,02,09,39,4.60
2010,06,02,09,40,2.70
2010,06,02,09,41,1.30
2010,06,02,09,42,0.10
2010,06,02,09,43,0.10
2010,06,02,09,44,0.30
2010,06,02,09,45,2.90
2010,06,02,09,46,2.00
2010,06,02,09,47,2.50
2010,06,02,09,48,3.30
2010,06,02,09,49,0.90
2010,06,02,09,50,3.40
2010,06,02,09,51,1.50
2010,06,02,09,52,4.10
2010,06,02,09,53,5.30
2010,06,02,09,54,5.00
2010,06,02,09,55,3.50
2010,06,02,09,56,1.10
2010,06,02,09,57,3.40
2010,06,02,09,58,4.40
2010,06,02,09,59,3.20
2010,06,02,10,00,1.80
2010,06,02,10,01,4.80
2010,06,02,10,02,7.20
2010,06,02,10,03,7.30
2010,06,02,10,04,7.80
2010,06,02,10,05,6.40
2010,06,02,10,06,5.90
2010,06,02,10,07,5.30
2010,06,02,10,08,4.90
2010,06,02,10,09,7.80
2010,06,02,10,10,7.20
2010,06,02,10,11,8.90
2010,06,02,10,12,5.70
2010,06,02,10,13,4.00
2010,06,02,10,14,5.70
2010,06,02,10,15,2.00
2010,06,02,10,16,4.00
2010,06,02,10,17,4.30
2010,06,02,10,18,1.20
2010,06,02,10,19,1.80
2010,06,02,10,20,1.90
2010,06,02,10,21,1.20
2010,06,02,10,22,0.30
2010,06,02,10,23,2.30
2010,06,02,10,24,0.80
2010,06,02,10,25,0.40
2010,06,02,10,26,1.90
2010,06,02,10,27,0.70
2010,06,02,10,28,1.20
2010,06,02,10,29,4.60
2010,06,02,10,30,3.90
2010,06,02,10,31,2.80
2010,06,02,10,32,5.80
2010,06,02,10,33,6.70
2010,06,02,10,34,4.10
2010,06,02,10,35,0.10
2010,06,02,10,36,1.80
2010,06,02,10,37,2.40
2010,06,02,10,38,1.30
2010,06,02,10,39,0.70
2010,06,02,10,40,0.30
2010,06,02,10,41,0.00
2010,06,02,10,42,0.00
2010,06,02,10,43,0.20
2010,06,02,10,44,0.50
2010,06,02,10,45,0.10
2010,06,02,10,46,1.40
2010,06,02,10,47,0.00
2010,06,02,10,48,0.10
2010,06,02,10,49,0.00
2010,06,02,10,50,0.00
2010,06,02,10,51,0.10
2010,06,02,10,52,0.50
2010,06,02,10,53,0.20
2010,06,02,10,54,0.00
2010,06,02,10,55,1.00
2010,06,02,10,56,0.50
2010,06,02,10,57,0.10
2010,06,02,10,58,0.10
2010,06,02,10,59,0.20
2010,06,02,11,00,0.20
2010,06,02,11,01,0.00
2010,06,02,11,02,1.70
2010,06,02,11,03,1.70
2010,06,02,11,04,0.60
2010,06,02,11,05,1.30
2010,06,02,11,06,1.60
2010,06,02,11,07,3.40
2010,06,02,11,08,0.90
2010,06,02,11,09,2.10
2010,06,02,11,10,2.10
2010,06,02,11,11,5.30
2010,06,02,11,12,4.10
2010,06,02,11,13,3.90
2010,06,02,11,14,2.70
2010,06,02,11,15,4.20
2010,06,02,11,16,2.50
2010,06,02,11,17,0.40
2010,06,02,11,18,0.20
2010,06,02,11,19,0.00
2010,06,02,11,20,0.00
2010,06,02,11,21,0.00
2010,06,02,11,22,0.00
2010,06,02,11,23,0.60
2010,06,02,11,24,0.30
2010,06,02,11,25,0.30
2010,06,02,11,26,1.00
2010,06,02,11,27,0.90
2010,06,02,11,28,0.80
2010,06,02,11,29,1.60
2010,06,02,11,30,2.80
2010,06,02,11,31,4.50
2010,06,02,11,32,3.50
2010,06,02,11,33,1.30
2010,06,02,11,34,0.70
2010,06,02,11,35,0.00
2010,06,02,11,36,1.20
2010,06,02,11,37,0.80
2010,06,02,11,38,0.10
2010,06,02,11,39,0.10
2010,06,02,11,40,0.80
2010,06,02,11,41,3.10
2010,06,02,11,42,1.10
2010,06,02,11,43,0.20
2010,06,02,11,44,0.40
2010,06,02,11,45,3.00
2010,06,02,11,46,1.10
2010,06,02,11,47,0.50
2010,06,02,11,48,0.20
2010,06,02,11,49,0.20
2010,06,02,11,50,0.00
2010,06,02,11,51,0.60
2010,06,02,11,52,0.30
2010,06,02,11,53,0.20
2010,06,02,11,54,0.70
2010,06,02,11,55,0.60
2010,06,02,11,56,3.30
2010,06,02,11,57,1.90
2010,06,02,11,58,1.30
2010,06,02,11,59,3.40
2010,06,02,12,00,3.60
2010,06,02,12,01,3.40
2010,06,02,12,02,1.40
2010,06,02,12,03,1.20
2010,06,02,12,04,1.70
2010,06,02,12,05,0.90
2010,06,02,12,06,0.50
2010,06,02,12,07,0.10
2010,06,02,12,08,0.20
2010,06,02,12,09,0.30
2010,06,02,12,10,0.00
2010,06,02,12,11,1.30
2010,06,02,12,12,1.20
2010,06,02,12,13,0.40
2010,06,02,12,14,0.40
2010,06,02,12,15,0.10
2010,06,02,12,16,3.70
2010,06,02,12,17,3.80
2010,06,02,12,18,7.20
2010,06,02,12,19,3.90
2010,06,02,12,20,2.10
2010,06,02,12,21,4.40
2010,06,02,12,22,3.90
2010,06,02,12,23,0.70
2010,06,02,12,24,4.20
2010,06,02,12,25,1.60
2010,06,02,12,26,2.80
2010,06,02,12,27,6.60
2010,06,02,12,28,6.90
2010,06,02,12,29,8.60
2010,06,02,12,30,9.70
2010,06,02,12,31,7.90
2010,06,02,12,32,5.30
2010,06,02,12,33,4.50
2010,06,02,12,34,4.40
2010,06,02,12,35,7.20
2010,06,02,12,36,3.60
2010,06,02,12,37,7.70
2010,06,02,12,38,11.90
2010,06,02,12,39,11.70
2010,06,02,12,40,11.10
2010,06,02,12,41,8.30
2010,06,02,12,42,7.20
2010,06,02,12,43,10.10
2010,06,02,12,44,9.10
2010,06,02,12,45,10.10
2010,06,02,12,46,9.90
2010,06,02,12,47,12.50
2010,06,02,12,48,9.20
2010,06,02,12,49,6.80
2010,06,02,12,50,6.90
2010,06,02,12,51,5.10
2010,06,02,12,52,9.70
2010,06,02,12,53,8.30
2010,06,02,12,54,3.40
2010,06,02,12,55,8.00
2010,06,02,12,56,3.90
2010,06,02,12,57,9.00
2010,06,02,12,58,13.00
2010,06,02,12,59,7.50
2010,06,02,13,00,6.90
2010,06,02,13,01,4.60
2010,06,02,13,02,4.70
2010,06,02,13,03,8.30
2010,06,02,13,04,6.80
2010,06,02,13,05,4.10
2010,06,02,13,06,7.00
2010,06,02,13,07,3.00
2010,06,02,13,08,7.70
2010,06,02,13,09,8.80
2010,06,02,13,10,9.30
2010,06,02,13,11,11.80
2010,06,02,13,12,8.30
2010,06,02,13,13,12.50
2010,06,02,13,14,14.60
2010,06,02,13,15,10.40
2010,06,02,13,16,9.10
2010,06,02,13,17,13.00
2010,06,02,13,18,5.80
2010,06,02,13,19,1.40
2010,06,02,13,20,7.90
2010,06,02,13,21,7.40
2010,06,02,13,22,15.00
2010,06,02,13,23,10.10
2010,06,02,13,24,7.60
2010,06,02,13,25,15.70
2010,06,02,13,26,10.20
2010,06,02,13,27,9.90
2010,06,02,13,28,14.90
2010,06,02,13,29,10.50
2010,06,02,13,30,12.70
2010,06,02,13,31,15.50
2010,06,02,13,32,13.50
2010,06,02,13,33,13.20
2010,06,02,13,34,20.00
2010,06,02,13,35,10.80
2010,06,02,13,36,9.30
2010,06,02,13,37,8.80
2010,06,02,13,38,5.30
2010,06,02,13,39,9.40
2010,06,02,13,40,13.60
2010,06,02,13,41,9.60
2010,06,02,13,42,7.40
2010,06,02,13,43,11.00
2010,06,02,13,44,15.90
2010,06,02,13,45,16.50
2010,06,02,13,46,14.00
2010,06,02,13,47,15.60
2010,06,02,13,48,16.50
2010,06,02,13,49,12.60
2010,06,02,13,50,8.90
2010,06,02,13,51,11.10
2010,06,02,13,52,13.70
2010,06,02,13,53,20.30
2010,06,02,13,54,11.70
2010,06,02,13,55,9.10
2010,06,02,13,56,7.70
2010,06,02,13,57,3.80
2010,06,02,13,58,6.00
2010,06,02,13,59,10.60
2010,06,02,14,00,10.10
2010,06,02,14,01,7.00
2010,06,02,14,02,8.50
2010,06,02,14,03,8.70
2010,06,02,14,04,10.60
2010,06,02,14,05,15.80
2010,06,02,14,06,10.70
2010,06,02,14,07,13.50
2010,06,02,14,08,18.00
2010,06,02,14,09,13.70
2010,06,02,14,10,5.60
2010,06,02,14,11,19.70
2010,06,02,14,12,14.60
2010,06,02,14,13,12.10
2010,06,02,14,14,12.30
2010,06,02,14,15,10.80
2010,06,02,14,16,13.00
2010,06,02,14,17,9.50
2010,06,02,14,18,9.20
2010,06,02,14,19,14.90
2010,06,02,14,20,8.60
2010,06,02,14,21,10.10
2010,06,02,14,22,10.90
2010,06,02,14,23,10.90
2010,06,02,14,24,14.90
2010,06,02,14,25,11.60
2010,06,02,14,26,12.10
2010,06,02,14,27,15.90
2010,06,02,14,28,9.30
2010,06,02,14,29,13.00
2010,06,02,14,30,10.10
2010,06,02,14,31,9.00
2010,06,02,14,32,14.10
2010,06,02,14,33,19.10
2010,06,02,14,34,16.50
2010,06,02,14,35,12.80
2010,06,02,14,36,19.00
2010,06,02,14,37,13.00
2010,06,02,14,38,14.70
2010,06,02,14,39,15.00
2010,06,02,14,40,12.40
2010,06,02,14,41,15.00
2010,06,02,14,42,8.60
2010,06,02,14,43,14.60
2010,06,02,14,44,12.40
2010,06,02,14,45,12.50
2010,06,02,14,46,15.30
2010,06,02,14,47,16.30
2010,06,02,14,48,15.80
2010,06,02,14,49,20.40
2010,06,02,14,50,12.30
2010,06,02,14,51,20.70
2010,06,02,14,52,10.80
2010,06,02,14,53,15.20
2010,06,02,14,54,9.70
2010,06,02,14,55,16.80
2010,06,02,14,56,15.20
2010,06,02,14,57,11.30
2010,06,02,14,58,14.90
2010,06,02,14,59,10.00
2010,06,02,15,00,21.20
2010,06,02,15,01,24.30
2010,06,02,15,02,19.20
2010,06,02,15,03,22.60
2010,06,02,15,04,19.50
2010,06,02,15,05,10.30
2010,06,02,15,06,14.30
2010,06,02,15,07,20.60
2010,06,02,15,08,21.50
2010,06,02,15,09,24.60
2010,06,02,15,10,17.80
2010,06,02,15,11,22.70
2010,06,02,15,12,22.90
2010,06,02,15,13,28.20
2010,06,02,15,14,23.20
2010,06,02,15,15,12.00
2010,06,02,15,16,7.10
2010,06,02,15,17,14.60
2010,06,02,15,18,20.80
2010,06,02,15,19,16.60
2010,06,02,15,20,25.80
2010,06,02,15,21,15.60
2010,06,02,15,22,21.00
2010,06,02,15,23,14.90
2010,06,02,15,24,12.10
2010,06,02,15,25,19.40
2010,06,02,15,26,20.40
2010,06,02,15,27,14.70
2010,06,02,15,28,11.40
2010,06,02,15,29,17.80
2010,06,02,15,30,17.40
2010,06,02,15,31,18.90
2010,06,02,15,32,11.80
2010,06,02,15,33,19.40
2010,06,02,15,34,19.00
2010,06,02,15,35,17.20
2010,06,02,15,36,14.70
2010,06,02,15,37,14.20
2010,06,02,15,38,17.80
2010,06,02,15,39,20.40
2010,06,02,15,40,20.10
2010,06,02,15,41,11.80
2010,06,02,15,42,21.70
2010,06,02,15,43,24.10
2010,06,02,15,44,21.30
2010,06,02,15,45,8.90
2010,06,02,15,46,21.70
2010,06,02,15,47,25.00
2010,06,02,15,48,24.80
2010,06,02,15,49,22.50
2010,06,02,15,50,18.60
2010,06,02,15,51,13.90
2010,06,02,15,52,19.20
2010,06,02,15,53,19.50
2010,06,02,15,54,26.20
2010,06,02,15,55,14.80
2010,06,02,15,56,28.50
2010,06,02,15,57,18.00
2010,06,02,15,58,23.30
2010,06,02,15,59,26.90
2010,06,02,16,00,16.20
2010,06,02,16,01,16.80
2010,06,02,16,02,26.90
2010,06,02,16,03,22.50
2010,06,02,16,04,20.30
2010,06,02,16,05,15.70
2010,06,02,16,06,26.00
2010,06,02,16,07,26.60
2010,06,02,16,08,21.20
2010,06,02,16,09,14.60
2010,06,02,16,10,14.40
2010,06,02,16,11,20.80
2010,06,02,16,12,20.70
2010,06,02,16,13,19.80
2010,06,02,16,14,16.40
2010,06,02,16,15,18.80
2010,06,02,16,16,17.10
2010,06,02,16,17,15.80
2010,06,02,16,18,15.30
2010,06,02,16,19,13.60
2010,06,02,16,20,18.00
2010,06,02,16,21,9.70
2010,06,02,16,22,14.00
2010,06,02,16,23,15.10
2010,06,02,16,24,25.70
2010,06,02,16,25,16.00
2010,06,02,16,26,15.00
2010,06,02,16,27,11.80
2010,06,02,16,28,18.20
2010,06,02,16,29,22.70
2010,06,02,16,30,15.80
2010,06,02,16,31,12.10
2010,06,02,16,32,17.10
2010,06,02,16,33,16.80
2010,06,02,16,34,16.30
2010,06,02,16,35,12.50
2010,06,02,16,36,9.10
2010,06,02,16,37,11.50
2010,06,02,16,38,15.80
2010,06,02,16,39,17.90
2010,06,02,16,40,15.40
2010,06,02,16,41,10.50
2010,06,02,16,42,16.70
2010,06,02,16,43,23.00
2010,06,02,16,44,26.80
2010,06,02,16,45,29.20
2010,06,02,16,46,26.60
2010,06,02,16,47,21.40
2010,06,02,16,48,14.70
2010,06,02,16,49,25.20
2010,06,02,16,50,24.50
2010,06,02,16,51,19.10
2010,06,02,16,52,24.50
2010,06,02,16,53,22.00
2010,06,02,16,54,28.70
2010,06,02,16,55,26.20
2010,06,02,16,56,16.60
2010,06,02,16,57,22.40
2010,06,02,16,58,24.00
2010,06,02,16,59,22.80
2010,06,02,17,00,15.50
2010,06,02,17,01,17.10
2010,06,02,17,02,22.90
2010,06,02,17,03,25.70
2010,06,02,17,04,19.10
2010,06,02,17,05,10.10
2010,06,02,17,06,19.10
2010,06,02,17,07,28.70
2010,06,02,17,08,30.10
2010,06,02,17,09,18.10
2010,06,02,17,10,22.90
2010,06,02,17,11,20.10
2010,06,02,17,12,18.80
2010,06,02,17,13,22.80
2010,06,02,17,14,22.80
2010,06,02,17,15,15.60
2010,06,02,17,16,19.00
2010,06,02,17,17,25.20
2010,06,02,17,18,19.10
2010,06,02,17,19,36.30
2010,06,02,17,20,28.50
2010,06,02,17,21,29.40
2010,06,02,17,22,28.60
2010,06,02,17,23,24.70
2010,06,02,17,24,29.00
2010,06,02,17,25,22.50
2010,06,02,17,26,21.90
2010,06,02,17,27,25.60
2010,06,02,17,28,31.90
2010,06,02,17,29,27.40
2010,06,02,17,30,20.50
2010,06,02,17,31,21.00
2010,06,02,17,32,19.60
2010,06,02,17,33,20.00
2010,06,02,17,34,20.90
2010,06,02,17,35,18.60
2010,06,02,17,36,34.10
2010,06,02,17,37,23.20
2010,06,02,17,38,14.30
2010,06,02,17,39,23.90
2010,06,02,17,40,26.00
2010,06,02,17,41,24.40
2010,06,02,17,42,30.90
2010,06,02,17,43,26.40
2010,06,02,17,44,24.80
2010,06,02,17,45,30.40
2010,06,02,17,46,30.60
2010,06,02,17,47,26.50
2010,06,02,17,48,18.90
2010,06,02,17,49,25.20